New River MCAS, NC

5:45 AM EDT on April 29, 2017 (GMT -0400)
New River Marine Corps Air Station

Weather History for KNCA - October, 2012

Change the Weather History Date:

Tuesday, October 16, 2012

  Actual Average Record
Temperature  
Mean Temperature 60 °F -  
Max Temperature 70 °F 71 °F 84 °F (2008)
Min Temperature 50 °F 51 °F 39 °F (2006)
Degree Days  
Heating Degree Days 6    
Growing Degree Days 10 (Base 50)    
Moisture  
Dew Point 47 °F    
Average Humidity 64    
Maximum Humidity 93    
Minimum Humidity 40    
Precipitation  
Precipitation 0.00 in - - ()
Sea Level Pressure  
Sea Level Pressure 29.90 in    
Wind  
Wind Speed 10 mph (North)    
Max Wind Speed 16 mph    
Max Gust Speed 18 mph    
Visibility 10 miles    
Events      
Averages and records for this station are not official NWS values.
T = Trace of Precipitation, MM = Missing Value Source: NWS Daily Summary

Daily Weather History Graph

Daily Weather History Graph

Search for Another Location

Airport or City:

Trip Planner

Search our weather history database for the weather conditions in past years. The results will help you decide how hot, cold, wet, or windy it might be!

Date:

Astronomy

Oct. 16, 2012 Rise Set
Actual Time 7:16 AM EDT 6:33 PM EDT
Civil Twilight 6:51 AM EDT 6:58 PM EDT
Nautical Twilight 6:21 AM EDT 7:27 PM EDT
Astronomical Twilight 5:52 AM EDT 7:57 PM EDT
Moon 8:31 AM EDT (10/16) 7:22 PM EDT (10/16)
Length of Visible Light 12h 07m
Length of Day
11h 16m
New Moon, 2% of the Moon is Illuminated
Oct 16
New Moon
Oct 21
First Quarter
Oct 29
Full
Nov 6
Last Quarter
Nov 13
New

Hourly Weather History & Observations

Time (EDT) Temp. Dew Point Humidity Pressure Visibility Wind Dir Wind Speed Gust Speed Precip Events Conditions
12:56 AM 64.0 °F 54.0 °F 70% 29.82 in 10.0 mi NW 13.8 mph - N/A   Clear
1:56 AM 62.1 °F 52.0 °F 70% 29.83 in 10.0 mi NNW 16.1 mph - N/A   Clear
2:56 AM 60.1 °F 50.0 °F 69% 29.84 in 10.0 mi NNW 15.0 mph - N/A   Clear
3:56 AM 57.9 °F 48.0 °F 70% 29.85 in 10.0 mi NNW 15.0 mph - N/A   Clear
4:56 AM 57.0 °F 46.9 °F 69% 29.87 in 10.0 mi NNW 11.5 mph - N/A   Clear
5:56 AM 55.0 °F 45.0 °F 69% 29.89 in 10.0 mi NNW 9.2 mph - N/A   Clear
6:56 AM 54.0 °F 45.0 °F 72% 29.91 in 10.0 mi North 8.1 mph - N/A   Clear
7:56 AM 53.1 °F 45.0 °F 74% 29.93 in 10.0 mi NNW 6.9 mph - N/A   Scattered Clouds
8:56 AM 55.9 °F 44.1 °F 64% 29.96 in 10.0 mi North 11.5 mph - N/A   Clear
9:56 AM 60.1 °F 46.0 °F 60% 29.96 in 10.0 mi North 9.2 mph 18.4 mph N/A   Scattered Clouds
10:56 AM 64.0 °F 45.0 °F 50% 29.95 in 10.0 mi NNE 12.7 mph - N/A   Scattered Clouds
11:56 AM 66.0 °F 44.1 °F 45% 29.94 in 10.0 mi North 9.2 mph - N/A   Clear
12:56 PM 66.9 °F 44.1 °F 44% 29.92 in 10.0 mi North 11.5 mph - N/A   Clear
1:56 PM 68.0 °F 44.1 °F 42% 29.90 in 10.0 mi NNE 6.9 mph 16.1 mph N/A   Clear
2:56 PM 69.1 °F 45.0 °F 42% 29.89 in 10.0 mi North 9.2 mph - N/A   Clear
3:56 PM 68.0 °F 44.1 °F 42% 29.89 in 10.0 mi NW 8.1 mph 16.1 mph N/A   Clear
4:56 PM 69.1 °F 44.1 °F 40% 29.88 in 10.0 mi NNW 9.2 mph - N/A   Clear
5:56 PM 66.0 °F 44.1 °F 45% 29.89 in 10.0 mi NNW 5.8 mph - N/A   Clear
6:56 PM 62.1 °F 46.0 °F 56% 29.90 in 10.0 mi NNE 3.5 mph - N/A   Clear
7:56 PM 54.0 °F 48.9 °F 83% 29.92 in 10.0 mi Calm Calm - N/A   Clear
8:56 PM 53.1 °F 50.0 °F 89% 29.93 in 10.0 mi Calm Calm - N/A   Clear
9:56 PM 51.1 °F 48.9 °F 92% 29.94 in 10.0 mi Calm Calm - N/A   Clear
10:56 PM 50.0 °F 48.0 °F 93% 29.95 in 10.0 mi Calm Calm - N/A   Clear
11:56 PM 50.0 °F 48.0 °F 93% 29.95 in 10.0 mi Calm Calm - N/A   Clear